User: anonymous   Login
Location: Avully
(45.9633°N, 6.0228°E)
Time: 20:40:00
(UTC+00:00)
Language:

Nimbus 7 Rocket - Orbit

View from above orbital plane
View from above orbital plane
View from above satellite
View from above satellite

Ground track
Ground track

The orbit data is extracted from the following two-line orbital elements,

1 11081U 78098B   24197.49275276  .00000086  00000-0  11391-3 0  9990
2 11081  99.3759 119.6804 0028180 227.2765 132.6018 13.85911284150609
Epoch (UTC): 15 July 2024 11:49:33
Eccentricity: 0.0028180
inclination: 99.3759°
perigee height: 922 km
apogee height: 963 km
right ascension of ascending node: 119.6804°
argument of perigee: 227.2765°
revolutions per day: 13.85911284
mean anomaly at epoch: 132.6018°
orbit number at epoch: 15060

The dashed part of the orbit path shows where the satellite is in the earth's shadow,  

DLR